Weather History for KAZO - December, 1992

Change the Weather History Date:

Monday, December 28, 1992

  Actual Average Record
Temperature  
Mean Temperature 36 °F 26 °F  
Max Temperature 39 °F 32 °F 65 °F (1984)
Min Temperature 34 °F 20 °F -7 °F (2000)
Degree Days  
Heating Degree Days 28 39  
Month to date heating degree days 1004  
Since 1 July heating degree days 2331  
Cooling Degree Days 0 0  
Month to date cooling degree days 0  
Year to date cooling degree days 675  
Moisture  
Dew Point 31 °F    
Average Humidity 77    
Maximum Humidity 89    
Minimum Humidity 70    
Precipitation  
Precipitation 0.00 in 0.05 in 0.90 in (1987)
Month to date precipitation 1.81  
Year to date precipitation 35.57  
Sea Level Pressure  
Sea Level Pressure 30.40 in    
Wind  
Wind Speed 9 mph (South)    
Max Wind Speed 12 mph    
Max Gust Speed -    
Visibility 4 miles    
Events      
T = Trace of Precipitation, MM = Missing Value Source: NWS Daily Summary

Daily Weather History Graph

Daily Weather History Graph

Search for Another Location

Airport or City:

Trip Planner

Search our weather history database for the weather conditions in past years. The results will help you decide how hot, cold, wet, or windy it might be!

Date:

Astronomy

Dec. 28, 1992 Rise Set
Actual Time 8:10 AM EST 5:17 PM EST
Civil Twilight 7:38 AM EST 5:49 PM EST
Nautical Twilight 7:03 AM EST 6:24 PM EST
Astronomical Twilight 6:29 AM EST 6:58 PM EST
Moon 10:37 AM EST (12/28) 10:11 PM EST (12/28)
Length of Visible Light 10h 10m
Length of Day
9h 07m
Waxing Crescent, 20% of the Moon is Illuminated
Dec 28
Waxing Crescent
Dec 31
First Quarter
Jan 8
Full
Jan 14
Last Quarter
Jan 22
New

Hourly Weather History & Observations

Time (EST) Temp. Windchill Dew Point Humidity Pressure Visibility Wind Dir Wind Speed Gust Speed Precip Events Conditions
6:00 AM 34.0 °F 28.0 °F 30.9 °F 89% 30.38 in 5.0 mi South 6.9 mph - N/A   Overcast
7:00 AM 34.0 °F 28.0 °F 30.9 °F 89% 30.38 in 5.0 mi South 6.9 mph - N/A   Overcast
8:00 AM 34.0 °F 28.0 °F 30.9 °F 89% 30.39 in 3.0 mi South 6.9 mph - N/A   Overcast
9:00 AM 34.9 °F 27.1 °F 30.9 °F 85% 30.39 in 3.0 mi South 10.4 mph - N/A   Overcast
10:00 AM 34.9 °F 26.6 °F 30.9 °F 85% 30.40 in 3.0 mi South 11.5 mph - N/A   Overcast
11:00 AM 37.9 °F 30.5 °F 30.9 °F 76% 30.42 in 10.5 mi South 11.5 mph - N/A   Overcast
12:00 PM 38.8 °F 31.6 °F 30.9 °F 73% 30.41 in 3.0 mi South 11.5 mph - N/A   Overcast
1:00 PM 38.8 °F 33.2 °F 30.9 °F 73% 30.41 in 3.0 mi SSW 8.1 mph - N/A   Overcast
2:00 PM 39.9 °F 32.9 °F 30.9 °F 70% 30.40 in 3.0 mi SSW 11.5 mph - N/A   Overcast
3:00 PM 39.9 °F 32.9 °F 30.9 °F 70% 30.41 in 4.0 mi South 11.5 mph - N/A   Overcast
4:00 PM 39.9 °F 33.9 °F 30.9 °F 70% 30.40 in 4.0 mi South 9.2 mph - N/A   Overcast
5:00 PM 39.9 °F 33.9 °F 30.9 °F 70% 30.41 in 4.0 mi South 9.2 mph - N/A   Overcast
6:00 PM 38.8 °F 33.8 °F 30.9 °F 73% 30.40 in 4.0 mi South 6.9 mph - N/A   Overcast
7:00 PM 38.8 °F 32.6 °F 30.9 °F 73% 30.39 in 4.0 mi South 9.2 mph - N/A   Overcast
8:00 PM 37.9 °F 31.5 °F 30.9 °F 76% 30.39 in 4.0 mi South 9.2 mph - N/A   Overcast
9:00 PM 37.9 °F 31.5 °F 30.9 °F 76% 30.40 in 4.0 mi South 9.2 mph - N/A   Overcast
10:00 PM 37.9 °F 33.5 °F 29.8 °F 73% 30.41 in 3.0 mi South 5.8 mph - N/A   Overcast
10:10 PM - - - N/A% 30.40 in 5.5 mi South 5.8 mph - N/A   Overcast
11:00 PM 36.9 °F 32.2 °F 30.9 °F 79% 30.41 in 2.8 mi SE 5.8 mph - N/A   Light Drizzle